Year,Month,Day,Hour,Minute,Value (Times are PST for temperature in C)
2021,01,31,09,12,6.50
2021,01,31,09,13,6.50
2021,01,31,09,14,6.50
2021,01,31,09,15,6.50
2021,01,31,09,16,6.50
2021,01,31,09,17,6.50
2021,01,31,09,18,6.50
2021,01,31,09,19,6.50
2021,01,31,09,20,6.50
2021,01,31,09,21,6.50
2021,01,31,09,22,6.50
2021,01,31,09,23,6.50
2021,01,31,09,24,6.50
2021,01,31,09,25,6.50
2021,01,31,09,26,6.50
2021,01,31,09,27,6.50
2021,01,31,09,28,6.50
2021,01,31,09,29,6.50
2021,01,31,09,30,6.50
2021,01,31,09,31,6.50
2021,01,31,09,32,6.50
2021,01,31,09,33,6.50
2021,01,31,09,34,6.50
2021,01,31,09,35,6.50
2021,01,31,09,36,6.60
2021,01,31,09,37,6.60
2021,01,31,09,38,6.60
2021,01,31,09,39,6.60
2021,01,31,09,40,6.60
2021,01,31,09,41,6.60
2021,01,31,09,42,6.60
2021,01,31,09,43,6.60
2021,01,31,09,44,6.60
2021,01,31,09,45,6.60
2021,01,31,09,46,6.60
2021,01,31,09,47,6.60
2021,01,31,09,48,6.60
2021,01,31,09,49,6.60
2021,01,31,09,50,6.60
2021,01,31,09,51,6.60
2021,01,31,09,52,6.60
2021,01,31,09,53,6.60
2021,01,31,09,54,6.60
2021,01,31,09,55,6.60
2021,01,31,09,56,6.60
2021,01,31,09,57,6.60
2021,01,31,09,58,6.60
2021,01,31,09,59,6.60
2021,01,31,10,00,6.60
2021,01,31,10,01,6.60
2021,01,31,10,02,6.60
2021,01,31,10,03,6.60
2021,01,31,10,04,6.60
2021,01,31,10,05,6.60
2021,01,31,10,06,6.60
2021,01,31,10,07,6.60
2021,01,31,10,08,6.60
2021,01,31,10,09,6.60
2021,01,31,10,10,6.60
2021,01,31,10,11,6.70
2021,01,31,10,12,6.70
2021,01,31,10,13,6.70
2021,01,31,10,14,6.70
2021,01,31,10,15,6.70
2021,01,31,10,16,6.70
2021,01,31,10,17,6.70
2021,01,31,10,18,6.70
2021,01,31,10,19,6.70
2021,01,31,10,20,6.70
2021,01,31,10,21,6.70
2021,01,31,10,22,6.70
2021,01,31,10,23,6.70
2021,01,31,10,24,6.70
2021,01,31,10,25,6.70
2021,01,31,10,26,6.70
2021,01,31,10,27,6.70
2021,01,31,10,28,6.70
2021,01,31,10,29,6.70
2021,01,31,10,30,6.70
2021,01,31,10,31,6.70
2021,01,31,10,32,6.70
2021,01,31,10,33,6.70
2021,01,31,10,34,6.70
2021,01,31,10,35,6.70
2021,01,31,10,36,6.70
2021,01,31,10,37,6.70
2021,01,31,10,38,6.70
2021,01,31,10,39,6.70
2021,01,31,10,40,6.70
2021,01,31,10,41,6.70
2021,01,31,10,42,6.70
2021,01,31,10,43,6.70
2021,01,31,10,44,6.70
2021,01,31,10,45,6.70
2021,01,31,10,46,6.70
2021,01,31,10,47,6.70
2021,01,31,10,48,6.70
2021,01,31,10,49,6.70
2021,01,31,10,50,6.70
2021,01,31,10,51,6.70
2021,01,31,10,52,6.80
2021,01,31,10,53,6.80
2021,01,31,10,54,6.70
2021,01,31,10,55,6.70
2021,01,31,10,56,6.70
2021,01,31,10,57,6.70
2021,01,31,10,58,6.70
2021,01,31,10,59,6.70
2021,01,31,11,00,6.70
2021,01,31,11,01,6.70
2021,01,31,11,02,6.80
2021,01,31,11,03,6.80
2021,01,31,11,04,6.80
2021,01,31,11,05,6.80
2021,01,31,11,06,6.80
2021,01,31,11,07,6.80
2021,01,31,11,08,6.80
2021,01,31,11,09,6.80
2021,01,31,11,10,6.80
2021,01,31,11,11,6.80
2021,01,31,11,12,6.80
2021,01,31,11,13,6.80
2021,01,31,11,14,6.70
2021,01,31,11,15,6.70
2021,01,31,11,16,6.70
2021,01,31,11,17,6.70
2021,01,31,11,18,6.70
2021,01,31,11,19,6.70
2021,01,31,11,20,6.70
2021,01,31,11,21,6.70
2021,01,31,11,22,6.70
2021,01,31,11,23,6.70
2021,01,31,11,24,6.70
2021,01,31,11,25,6.70
2021,01,31,11,26,6.70
2021,01,31,11,27,6.70
2021,01,31,11,28,6.70
2021,01,31,11,29,6.70
2021,01,31,11,30,6.70
2021,01,31,11,31,6.70
2021,01,31,11,32,6.70
2021,01,31,11,33,6.70
2021,01,31,11,34,6.70
2021,01,31,11,35,6.70
2021,01,31,11,36,6.70
2021,01,31,11,37,6.70
2021,01,31,11,38,6.70
2021,01,31,11,39,6.70
2021,01,31,11,40,6.70
2021,01,31,11,41,6.70
2021,01,31,11,42,6.70
2021,01,31,11,43,6.70
2021,01,31,11,44,6.70
2021,01,31,11,45,6.60
2021,01,31,11,46,6.60
2021,01,31,11,47,6.60
2021,01,31,11,48,6.60
2021,01,31,11,49,6.60
2021,01,31,11,50,6.60
2021,01,31,11,51,6.60
2021,01,31,11,52,6.60
2021,01,31,11,53,6.60
2021,01,31,11,54,6.60
2021,01,31,11,55,6.60
2021,01,31,11,56,6.60
2021,01,31,11,57,6.60
2021,01,31,11,58,6.60
2021,01,31,11,59,6.60
2021,01,31,12,00,6.60
2021,01,31,12,01,6.60
2021,01,31,12,02,6.70
2021,01,31,12,03,6.70
2021,01,31,12,04,6.70
2021,01,31,12,05,6.70
2021,01,31,12,06,6.70
2021,01,31,12,07,6.70
2021,01,31,12,08,6.60
2021,01,31,12,09,6.60
2021,01,31,12,10,6.60
2021,01,31,12,11,6.60
2021,01,31,12,12,6.50
2021,01,31,12,13,6.50
2021,01,31,12,14,6.50
2021,01,31,12,15,6.50
2021,01,31,12,16,6.40
2021,01,31,12,17,6.40
2021,01,31,12,18,6.40
2021,01,31,12,19,6.40
2021,01,31,12,20,6.40
2021,01,31,12,21,6.40
2021,01,31,12,22,6.40
2021,01,31,12,23,6.40
2021,01,31,12,24,6.40
2021,01,31,12,25,6.40
2021,01,31,12,26,6.40
2021,01,31,12,27,6.40
2021,01,31,12,28,6.40
2021,01,31,12,29,6.40
2021,01,31,12,30,6.40
2021,01,31,12,31,6.40
2021,01,31,12,32,6.40
2021,01,31,12,33,6.40
2021,01,31,12,34,6.40
2021,01,31,12,35,6.40
2021,01,31,12,36,6.40
2021,01,31,12,37,6.40
2021,01,31,12,38,6.40
2021,01,31,12,39,6.40
2021,01,31,12,40,6.40
2021,01,31,12,41,6.40
2021,01,31,12,42,6.40
2021,01,31,12,43,6.40
2021,01,31,12,44,6.40
2021,01,31,12,45,6.40
2021,01,31,12,46,6.40
2021,01,31,12,47,6.40
2021,01,31,12,48,6.40
2021,01,31,12,49,6.40
2021,01,31,12,50,6.40
2021,01,31,12,51,6.40
2021,01,31,12,52,6.40
2021,01,31,12,53,6.40
2021,01,31,12,54,6.40
2021,01,31,12,55,6.40
2021,01,31,12,56,6.40
2021,01,31,12,57,6.40
2021,01,31,12,58,6.40
2021,01,31,12,59,6.40
2021,01,31,13,00,6.40
2021,01,31,13,01,6.40
2021,01,31,13,02,6.40
2021,01,31,13,03,6.40
2021,01,31,13,04,6.40
2021,01,31,13,05,6.40
2021,01,31,13,06,6.30
2021,01,31,13,07,6.30
2021,01,31,13,08,6.30
2021,01,31,13,09,6.30
2021,01,31,13,10,6.30
2021,01,31,13,11,6.30
2021,01,31,13,12,6.30
2021,01,31,13,13,6.30
2021,01,31,13,14,6.30
2021,01,31,13,15,6.30
2021,01,31,13,16,6.30
2021,01,31,13,17,6.30
2021,01,31,13,18,6.30
2021,01,31,13,19,6.30
2021,01,31,13,20,6.30
2021,01,31,13,21,6.30
2021,01,31,13,22,6.30
2021,01,31,13,23,6.30
2021,01,31,13,24,6.30
2021,01,31,13,25,6.30
2021,01,31,13,26,6.30
2021,01,31,13,27,6.30
2021,01,31,13,28,6.30
2021,01,31,13,29,6.30
2021,01,31,13,30,6.30
2021,01,31,13,31,6.30
2021,01,31,13,32,6.30
2021,01,31,13,33,6.30
2021,01,31,13,34,6.30
2021,01,31,13,35,6.30
2021,01,31,13,36,6.20
2021,01,31,13,37,6.20
2021,01,31,13,38,6.20
2021,01,31,13,39,6.20
2021,01,31,13,40,6.20
2021,01,31,13,41,6.20
2021,01,31,13,42,6.20
2021,01,31,13,43,6.20
2021,01,31,13,44,6.20
2021,01,31,13,45,6.20
2021,01,31,13,46,6.20
2021,01,31,13,47,6.20
2021,01,31,13,48,6.20
2021,01,31,13,49,6.20
2021,01,31,13,50,6.20
2021,01,31,13,51,6.20
2021,01,31,13,52,6.20
2021,01,31,13,53,6.20
2021,01,31,13,54,6.10
2021,01,31,13,55,6.10
2021,01,31,13,56,6.10
2021,01,31,13,57,6.10
2021,01,31,13,58,6.10
2021,01,31,13,59,6.10
2021,01,31,14,00,6.10
2021,01,31,14,01,6.10
2021,01,31,14,02,6.10
2021,01,31,14,03,6.10
2021,01,31,14,04,6.10
2021,01,31,14,05,6.10
2021,01,31,14,06,6.10
2021,01,31,14,07,6.10
2021,01,31,14,08,6.10
2021,01,31,14,09,6.10
2021,01,31,14,10,6.10
2021,01,31,14,11,6.10
2021,01,31,14,12,6.10
2021,01,31,14,13,6.10
2021,01,31,14,14,6.10
2021,01,31,14,15,6.10
2021,01,31,14,16,6.10
2021,01,31,14,17,6.10
2021,01,31,14,18,6.10
2021,01,31,14,19,6.10
2021,01,31,14,20,6.10
2021,01,31,14,21,6.10
2021,01,31,14,22,6.10
2021,01,31,14,23,6.10
2021,01,31,14,24,6.10
2021,01,31,14,25,6.10
2021,01,31,14,26,6.10
2021,01,31,14,27,6.10
2021,01,31,14,28,6.10
2021,01,31,14,29,6.10
2021,01,31,14,30,6.10
2021,01,31,14,31,6.10
2021,01,31,14,32,6.10
2021,01,31,14,33,6.10
2021,01,31,14,34,6.10
2021,01,31,14,35,6.10
2021,01,31,14,36,6.10
2021,01,31,14,37,6.10
2021,01,31,14,38,6.10
2021,01,31,14,39,6.10
2021,01,31,14,40,6.10
2021,01,31,14,41,6.10
2021,01,31,14,42,6.10
2021,01,31,14,43,6.10
2021,01,31,14,44,6.10
2021,01,31,14,45,6.10
2021,01,31,14,46,6.10
2021,01,31,14,47,6.10
2021,01,31,14,48,6.10
2021,01,31,14,49,6.10
2021,01,31,14,50,6.10
2021,01,31,14,51,6.10
2021,01,31,14,52,6.10
2021,01,31,14,53,6.10
2021,01,31,14,54,6.10
2021,01,31,14,55,6.10
2021,01,31,14,56,6.10
2021,01,31,14,57,6.10
2021,01,31,14,58,6.10
2021,01,31,14,59,6.10
2021,01,31,15,00,6.10
2021,01,31,15,01,6.10
2021,01,31,15,02,6.10
2021,01,31,15,03,6.10
2021,01,31,15,04,6.10
2021,01,31,15,05,6.10
2021,01,31,15,06,6.10
2021,01,31,15,07,6.10
2021,01,31,15,08,6.10
2021,01,31,15,09,6.10
2021,01,31,15,10,6.10
2021,01,31,15,11,6.10
2021,01,31,15,12,6.10
2021,01,31,15,13,6.10
2021,01,31,15,14,6.10
2021,01,31,15,15,6.10
2021,01,31,15,16,6.10
2021,01,31,15,17,6.10
2021,01,31,15,18,6.10
2021,01,31,15,19,6.10
2021,01,31,15,20,6.00
2021,01,31,15,21,6.00
2021,01,31,15,22,6.00
2021,01,31,15,23,6.00
2021,01,31,15,24,6.00
2021,01,31,15,25,6.00
2021,01,31,15,26,6.00
2021,01,31,15,27,6.00
2021,01,31,15,28,6.00
2021,01,31,15,29,6.00
2021,01,31,15,30,6.00
2021,01,31,15,31,6.00
2021,01,31,15,32,6.00
2021,01,31,15,33,6.00
2021,01,31,15,34,6.00
2021,01,31,15,35,6.00
2021,01,31,15,36,6.00
2021,01,31,15,37,6.00
2021,01,31,15,38,6.00
2021,01,31,15,39,5.90
2021,01,31,15,40,5.90
2021,01,31,15,41,5.90
2021,01,31,15,42,6.00
2021,01,31,15,43,5.90
2021,01,31,15,44,5.90
2021,01,31,15,45,5.90
2021,01,31,15,46,5.90
2021,01,31,15,47,5.90
2021,01,31,15,48,5.90
2021,01,31,15,49,5.90
2021,01,31,15,50,5.90
2021,01,31,15,51,5.90
2021,01,31,15,52,5.90
2021,01,31,15,53,5.90
2021,01,31,15,54,5.90
2021,01,31,15,55,5.90
2021,01,31,15,56,5.90
2021,01,31,15,57,5.90
2021,01,31,15,58,5.90
2021,01,31,15,59,5.90
2021,01,31,16,00,5.90
2021,01,31,16,01,5.90
2021,01,31,16,02,5.90
2021,01,31,16,03,5.90
2021,01,31,16,04,5.90
2021,01,31,16,05,5.90
2021,01,31,16,06,5.90
2021,01,31,16,07,5.90
2021,01,31,16,08,5.90
2021,01,31,16,09,5.90
2021,01,31,16,10,5.90
2021,01,31,16,11,5.90
2021,01,31,16,12,5.90
2021,01,31,16,13,5.90
2021,01,31,16,14,5.90
2021,01,31,16,15,5.90
2021,01,31,16,16,5.90
2021,01,31,16,17,5.90
2021,01,31,16,18,5.90
2021,01,31,16,19,5.90
2021,01,31,16,20,5.90
2021,01,31,16,21,5.90
2021,01,31,16,22,5.90
2021,01,31,16,23,5.90
2021,01,31,16,24,5.90
2021,01,31,16,25,5.90
2021,01,31,16,26,5.80
2021,01,31,16,27,5.80
2021,01,31,16,28,5.80
2021,01,31,16,29,5.80
2021,01,31,16,30,5.80
2021,01,31,16,31,5.80
2021,01,31,16,32,5.80
2021,01,31,16,33,5.80
2021,01,31,16,34,5.80
2021,01,31,16,35,5.80
2021,01,31,16,36,5.80
2021,01,31,16,37,5.80
2021,01,31,16,38,5.80
2021,01,31,16,39,5.80
2021,01,31,16,40,5.80
2021,01,31,16,41,5.80
2021,01,31,16,42,5.80
2021,01,31,16,43,5.80
2021,01,31,16,44,5.80
2021,01,31,16,45,5.80
2021,01,31,16,46,5.80
2021,01,31,16,47,5.80
2021,01,31,16,48,5.80
2021,01,31,16,49,5.80
2021,01,31,16,50,5.80
2021,01,31,16,51,5.80
2021,01,31,16,52,5.80
2021,01,31,16,53,5.80
2021,01,31,16,54,5.80
2021,01,31,16,55,5.80
2021,01,31,16,56,5.80
2021,01,31,16,57,5.80
2021,01,31,16,58,5.80
2021,01,31,16,59,5.80
2021,01,31,17,00,5.80
2021,01,31,17,01,5.80
2021,01,31,17,02,5.80
2021,01,31,17,03,5.80
2021,01,31,17,04,5.80
2021,01,31,17,05,5.80
2021,01,31,17,06,5.80
2021,01,31,17,07,5.80
2021,01,31,17,08,5.80
2021,01,31,17,09,5.80
2021,01,31,17,10,5.80
2021,01,31,17,11,5.80
2021,01,31,17,12,5.80
2021,01,31,17,13,5.80
2021,01,31,17,14,5.80
2021,01,31,17,15,5.80
2021,01,31,17,16,5.70
2021,01,31,17,17,5.70
2021,01,31,17,18,5.70
2021,01,31,17,19,5.80
2021,01,31,17,20,5.70
2021,01,31,17,21,5.70
2021,01,31,17,22,5.70
2021,01,31,17,23,5.70
2021,01,31,17,24,5.70
2021,01,31,17,25,5.70
2021,01,31,17,26,5.70
2021,01,31,17,27,5.70
2021,01,31,17,28,5.70
2021,01,31,17,29,5.70
2021,01,31,17,30,5.70
2021,01,31,17,31,5.70
2021,01,31,17,32,5.70
2021,01,31,17,33,5.70
2021,01,31,17,34,5.70
2021,01,31,17,35,5.70
2021,01,31,17,36,5.70
2021,01,31,17,37,5.70
2021,01,31,17,38,5.70
2021,01,31,17,39,5.70
2021,01,31,17,40,5.70
2021,01,31,17,41,5.70
2021,01,31,17,42,5.70
2021,01,31,17,43,5.70
2021,01,31,17,44,5.70
2021,01,31,17,45,5.70
2021,01,31,17,46,5.70
2021,01,31,17,47,5.70
2021,01,31,17,48,5.70
2021,01,31,17,49,5.70
2021,01,31,17,50,5.70
2021,01,31,17,51,5.70
2021,01,31,17,52,5.70
2021,01,31,17,53,5.70
2021,01,31,17,54,5.60
2021,01,31,17,55,5.60
2021,01,31,17,56,5.60
2021,01,31,17,57,5.60
2021,01,31,17,58,5.60
2021,01,31,17,59,5.60
2021,01,31,18,00,5.60
2021,01,31,18,01,5.60
2021,01,31,18,02,5.60
2021,01,31,18,03,5.60
2021,01,31,18,04,5.60
2021,01,31,18,05,5.60
2021,01,31,18,06,5.60
2021,01,31,18,07,5.60
2021,01,31,18,08,5.60
2021,01,31,18,09,5.60
2021,01,31,18,10,5.60
2021,01,31,18,11,5.60
2021,01,31,18,12,5.60
2021,01,31,18,13,5.60
2021,01,31,18,14,5.60
2021,01,31,18,15,5.60
2021,01,31,18,16,5.60
2021,01,31,18,17,5.60
2021,01,31,18,18,5.60
2021,01,31,18,19,5.60
2021,01,31,18,20,5.60
2021,01,31,18,21,5.60
2021,01,31,18,22,5.60
2021,01,31,18,23,5.60
2021,01,31,18,24,5.60
2021,01,31,18,25,5.60
2021,01,31,18,26,5.60
2021,01,31,18,27,5.60
2021,01,31,18,28,5.60
2021,01,31,18,29,5.60
2021,01,31,18,30,5.60
2021,01,31,18,31,5.60
2021,01,31,18,32,5.60
2021,01,31,18,33,5.60
2021,01,31,18,34,5.60
2021,01,31,18,35,5.60
2021,01,31,18,36,5.60
2021,01,31,18,37,5.60
2021,01,31,18,38,5.60
2021,01,31,18,39,5.60
2021,01,31,18,40,5.60
2021,01,31,18,41,5.60
2021,01,31,18,42,5.60
2021,01,31,18,43,5.60
2021,01,31,18,44,5.60
2021,01,31,18,45,5.60
2021,01,31,18,46,5.60
2021,01,31,18,47,5.60
2021,01,31,18,48,5.60
2021,01,31,18,49,5.60
2021,01,31,18,50,5.60
2021,01,31,18,51,5.60
2021,01,31,18,52,5.60
2021,01,31,18,53,5.60
2021,01,31,18,54,5.60
2021,01,31,18,55,5.60
2021,01,31,18,56,5.60
2021,01,31,18,57,5.60
2021,01,31,18,58,5.60
2021,01,31,18,59,5.60
2021,01,31,19,00,5.60
2021,01,31,19,01,5.60
2021,01,31,19,02,5.60
2021,01,31,19,03,5.60
2021,01,31,19,04,5.60
2021,01,31,19,05,5.60
2021,01,31,19,06,5.60
2021,01,31,19,07,5.60
2021,01,31,19,08,5.60
2021,01,31,19,09,5.60
2021,01,31,19,10,5.60
2021,01,31,19,11,5.60
2021,01,31,19,12,5.60
2021,01,31,19,13,5.60
2021,01,31,19,14,5.60
2021,01,31,19,15,5.60
2021,01,31,19,16,5.60
2021,01,31,19,17,5.60
2021,01,31,19,18,5.60
2021,01,31,19,19,5.60
2021,01,31,19,20,5.60
2021,01,31,19,21,5.60
2021,01,31,19,22,5.60
2021,01,31,19,23,5.60
2021,01,31,19,24,5.60
2021,01,31,19,25,5.60
2021,01,31,19,26,5.60
2021,01,31,19,27,5.60
2021,01,31,19,28,5.60
2021,01,31,19,29,5.60
2021,01,31,19,30,5.60
2021,01,31,19,31,5.60
2021,01,31,19,32,5.60
2021,01,31,19,33,5.50
2021,01,31,19,34,5.50
2021,01,31,19,35,5.50
2021,01,31,19,36,5.50
2021,01,31,19,37,5.50
2021,01,31,19,38,5.50
2021,01,31,19,39,5.50
2021,01,31,19,40,5.50
2021,01,31,19,41,5.50
2021,01,31,19,42,5.50
2021,01,31,19,43,5.50
2021,01,31,19,44,5.50
2021,01,31,19,45,5.50
2021,01,31,19,46,5.50
2021,01,31,19,47,5.50
2021,01,31,19,48,5.50
2021,01,31,19,49,5.50
2021,01,31,19,50,5.50
2021,01,31,19,51,5.50
2021,01,31,19,52,5.50
2021,01,31,19,53,5.50
2021,01,31,19,54,5.50
2021,01,31,19,55,5.50
2021,01,31,19,56,5.50
2021,01,31,19,57,5.50
2021,01,31,19,58,5.50
2021,01,31,19,59,5.50
2021,01,31,20,00,5.50
2021,01,31,20,01,5.50
2021,01,31,20,02,5.50
2021,01,31,20,03,5.50
2021,01,31,20,04,5.50
2021,01,31,20,05,5.50
2021,01,31,20,06,5.50
2021,01,31,20,07,5.50
2021,01,31,20,08,5.50
2021,01,31,20,09,5.50
2021,01,31,20,10,5.50
2021,01,31,20,11,5.50
2021,01,31,20,12,5.50
2021,01,31,20,13,5.50
2021,01,31,20,14,5.50
2021,01,31,20,15,5.50
2021,01,31,20,16,5.50
2021,01,31,20,17,5.50
2021,01,31,20,18,5.50
2021,01,31,20,19,5.50
2021,01,31,20,20,5.50
2021,01,31,20,21,5.50
2021,01,31,20,22,5.50
2021,01,31,20,23,5.50
2021,01,31,20,24,5.50
2021,01,31,20,25,5.50
2021,01,31,20,26,5.50
2021,01,31,20,27,5.50
2021,01,31,20,28,5.50
2021,01,31,20,29,5.50
2021,01,31,20,30,5.50
2021,01,31,20,31,5.50
2021,01,31,20,32,5.60
2021,01,31,20,33,5.60
2021,01,31,20,34,5.60
2021,01,31,20,35,5.60
2021,01,31,20,36,5.60
2021,01,31,20,37,5.60
2021,01,31,20,38,5.60
2021,01,31,20,39,5.60
2021,01,31,20,40,5.60
2021,01,31,20,41,5.60
2021,01,31,20,42,5.60
2021,01,31,20,43,5.60
2021,01,31,20,44,5.60
2021,01,31,20,45,5.60
2021,01,31,20,46,5.60
2021,01,31,20,47,5.60
2021,01,31,20,48,5.60
2021,01,31,20,49,5.60
2021,01,31,20,50,5.60
2021,01,31,20,51,5.60
2021,01,31,20,52,5.60
2021,01,31,20,53,5.60
2021,01,31,20,54,5.60
2021,01,31,20,55,5.60
2021,01,31,20,56,5.60
2021,01,31,20,57,5.60
2021,01,31,20,58,5.60
2021,01,31,20,59,5.60
2021,01,31,21,00,5.60
2021,01,31,21,01,5.60
2021,01,31,21,02,5.60
2021,01,31,21,03,5.60
2021,01,31,21,04,5.60
2021,01,31,21,05,5.60
2021,01,31,21,06,5.60
2021,01,31,21,07,5.60
2021,01,31,21,08,5.50
2021,01,31,21,09,5.50
2021,01,31,21,10,5.50
2021,01,31,21,11,5.50
2021,01,31,21,12,5.50
2021,01,31,21,13,5.50
2021,01,31,21,14,5.50
2021,01,31,21,15,5.50
2021,01,31,21,16,5.50
2021,01,31,21,17,5.50
2021,01,31,21,18,5.50
2021,01,31,21,19,5.50
2021,01,31,21,20,5.50
2021,01,31,21,21,5.50
2021,01,31,21,22,5.50
2021,01,31,21,23,5.50
2021,01,31,21,24,5.50
2021,01,31,21,25,5.50
2021,01,31,21,26,5.50
2021,01,31,21,27,5.50
2021,01,31,21,28,5.50
2021,01,31,21,29,5.40
2021,01,31,21,30,5.40
2021,01,31,21,31,5.40
2021,01,31,21,32,5.40
2021,01,31,21,33,5.40
2021,01,31,21,34,5.40
2021,01,31,21,35,5.40
2021,01,31,21,36,5.40
2021,01,31,21,37,5.40
2021,01,31,21,38,5.40
2021,01,31,21,39,5.40
2021,01,31,21,40,5.30
2021,01,31,21,41,5.30
2021,01,31,21,42,5.30
2021,01,31,21,43,5.30
2021,01,31,21,44,5.30
2021,01,31,21,45,5.30
2021,01,31,21,46,5.30
2021,01,31,21,47,5.30
2021,01,31,21,48,5.30
2021,01,31,21,49,5.30
2021,01,31,21,50,5.30
2021,01,31,21,51,5.30
2021,01,31,21,52,5.30
2021,01,31,21,53,5.30
2021,01,31,21,54,5.30
2021,01,31,21,55,5.30
2021,01,31,21,56,5.30
2021,01,31,21,57,5.30
2021,01,31,21,58,5.30
2021,01,31,21,59,5.30
2021,01,31,22,00,5.30
2021,01,31,22,01,5.30
2021,01,31,22,02,5.30
2021,01,31,22,03,5.30
2021,01,31,22,04,5.30
2021,01,31,22,05,5.30
2021,01,31,22,06,5.30
2021,01,31,22,07,5.30
2021,01,31,22,08,5.30
2021,01,31,22,09,5.30
2021,01,31,22,10,5.30
2021,01,31,22,11,5.30
2021,01,31,22,12,5.30
2021,01,31,22,13,5.30
2021,01,31,22,14,5.20
2021,01,31,22,15,5.20
2021,01,31,22,16,5.20
2021,01,31,22,17,5.20
2021,01,31,22,18,5.20
2021,01,31,22,19,5.20
2021,01,31,22,20,5.20
2021,01,31,22,21,5.20
2021,01,31,22,22,5.20
2021,01,31,22,23,5.20
2021,01,31,22,24,5.20
2021,01,31,22,25,5.20
2021,01,31,22,26,5.20
2021,01,31,22,27,5.20
2021,01,31,22,28,5.20
2021,01,31,22,29,5.20
2021,01,31,22,30,5.20
2021,01,31,22,31,5.20
2021,01,31,22,32,5.20
2021,01,31,22,33,5.20
2021,01,31,22,34,5.20
2021,01,31,22,35,5.20
2021,01,31,22,36,5.20
2021,01,31,22,37,5.20
2021,01,31,22,38,5.20
2021,01,31,22,39,5.20
2021,01,31,22,40,5.20
2021,01,31,22,41,5.20
2021,01,31,22,42,5.20
2021,01,31,22,43,5.20
2021,01,31,22,44,5.20
2021,01,31,22,45,5.30
2021,01,31,22,46,5.30
2021,01,31,22,47,5.30
2021,01,31,22,48,5.30
2021,01,31,22,49,5.30
2021,01,31,22,50,5.30
2021,01,31,22,51,5.30
2021,01,31,22,52,5.30
2021,01,31,22,53,5.30
2021,01,31,22,54,5.30
2021,01,31,22,55,5.30
2021,01,31,22,56,5.30
2021,01,31,22,57,5.20
2021,01,31,22,58,5.30
2021,01,31,22,59,5.20
2021,01,31,23,00,5.20
2021,01,31,23,01,5.20
2021,01,31,23,02,5.20
2021,01,31,23,03,5.20
2021,01,31,23,04,5.20
2021,01,31,23,05,5.20
2021,01,31,23,06,5.20
2021,01,31,23,07,5.20
2021,01,31,23,08,5.20
2021,01,31,23,09,5.20
2021,01,31,23,10,5.20
2021,01,31,23,11,5.20
2021,01,31,23,12,5.20
2021,01,31,23,13,5.20
2021,01,31,23,14,5.20
2021,01,31,23,15,5.20
2021,01,31,23,16,5.20
2021,01,31,23,17,5.20
2021,01,31,23,18,5.20
2021,01,31,23,19,5.20
2021,01,31,23,20,5.20
2021,01,31,23,21,5.20
2021,01,31,23,22,5.20
2021,01,31,23,23,5.20
2021,01,31,23,24,5.20
2021,01,31,23,25,5.20
2021,01,31,23,26,5.20
2021,01,31,23,27,5.20
2021,01,31,23,28,5.10
2021,01,31,23,29,5.10
2021,01,31,23,30,5.10
2021,01,31,23,31,5.10
2021,01,31,23,32,5.10
2021,01,31,23,33,5.10
2021,01,31,23,34,5.10
2021,01,31,23,35,5.10
2021,01,31,23,36,5.10
2021,01,31,23,37,5.10
2021,01,31,23,38,5.10
2021,01,31,23,39,5.10
2021,01,31,23,40,5.10
2021,01,31,23,41,5.10
2021,01,31,23,42,5.10
2021,01,31,23,43,5.10
2021,01,31,23,44,5.10
2021,01,31,23,45,5.10
2021,01,31,23,46,5.10
2021,01,31,23,47,5.10
2021,01,31,23,48,5.10
2021,01,31,23,49,5.00
2021,01,31,23,50,5.00
2021,01,31,23,51,5.00
2021,01,31,23,52,5.00
2021,01,31,23,53,5.00
2021,01,31,23,54,5.00
2021,01,31,23,55,5.00
2021,01,31,23,56,5.00
2021,01,31,23,57,5.00
2021,01,31,23,58,5.00
2021,01,31,23,59,5.00
